Location: Unspecified
(52.4361°N, 0.0000°E)
Time: 02:16:20
(UTC+00:00)

OTV 5 (USA 277) - Visible Passes

Search period start: 23 October 2019 00:00
Search period end: 02 November 2019 00:00
Orbit: 310 x 324 km, 54.5° (Epoch: 17 October)

Date Brightness Start Highest point End Pass type
(mag) Time Alt. Az. Time Alt. Az. Time Alt. Az.
29 Oct ? 18:53:04 10° SSW 18:53:10 11° SSW 18:53:10 11° SSW visible
30 Oct ? 19:07:12 10° SW 19:07:33 13° SW 19:07:33 13° SW visible
31 Oct ? 17:48:18 10° S 17:50:22 19° SE 17:50:56 18° SE visible
31 Oct ? 19:21:38 10° WSW 19:21:50 11° WSW 19:21:50 11° WSW visible
01 Nov ? 18:02:11 10° SW 18:04:44 36° SSE 18:05:08 34° SE visible
